Regional Weather Roundup
Issued by NWS

Home | Current Version | Previous Version | Text Only | Print | Product List | Glossary Off
Versions: 1 2 3 4 5 6 7 8 9 10 11 12 13 14 15 16 17 18 19 20 21 22 23 24 25 26 27 28 29 30 31 32 33 34 35 36 37 38 39 40 41 42 43 44 45 46 47 48 49 50

000
ASUS43 KLMK 211810
RWRKY
KENTUCKY REGIONAL WEATHER ROUNDUP
NATIONAL WEATHER SERVICE LOUISVILLE KY
200 PM EDT SAT OCT 21 2017

NOTE "FAIR" INDICATES FEW OR NO CLOUDS BELOW 12,000 FEET
WITH NO SIGNIFICANT WEATHER AND/OR OBSTRUCTIONS TO VISIBILITY.

KYZ001>023-026-027-061>063-070>075-211900-
WESTERN AND SOUTH CENTRAL KENTUCKY

CITY           SKY/WX    TMP DP  RH WIND       PRES   REMARKS
PADUCAH        CLOUDY    75  53  46 S12       30.11F
HENDERSON      MOSUNNY   75  54  47 S8        30.16F
OWENSBORO      PTSUNNY   73  52  47 S12       30.17F
HOPKINSVILLE   SUNNY     75  51  43 S10       30.17F
BOWLING GREEN  CLOUDY    75  51  43 S13       30.20F
GLASGOW        CLOUDY    75  46  35 S9        30.22F
$$

KYZ024-025-028>034-038-045-046-053-211900-
NORTH CENTRAL KENTUCKY

CITY           SKY/WX    TMP DP  RH WIND       PRES   REMARKS
LOUISVILLE/SDF PTSUNNY   73  52  47 S7        30.20F
LOUISVILLE/LOU CLOUDY    73  53  49 S9        30.22F
FORT KNOX      MOSUNNY   73  51  45 S7        30.20F
$$

KYZ035>037-039>044-047>052-055>060-089>105-211900-
NORTHEAST KENTUCKY

CITY           SKY/WX    TMP DP  RH WIND       PRES   REMARKS
LEXINGTON      MOSUNNY   75  46  35 SW13G22   30.25F
COVINGTON      CLOUDY    70  51  51 S7        30.23F
FRANKFORT      MOSUNNY   74  46  36 SW9       30.23F
$$

KYZ054-064>069-076>088-106>120-211900-
SOUTHEAST KENTUCKY

CITY           SKY/WX    TMP DP  RH WIND       PRES   REMARKS
JACKSON        MOSUNNY   72  53  51 CALM      30.29F
LONDON         MOSUNNY   73  46  38 VRB5      30.28F
SOMERSET       MOSUNNY   72  48  43 S8        30.28F
MIDDLESBORO    SUNNY     74  49  41 CALM      30.29F
MONTICELLO     PTCLDY    76  48  37 VRB5      30.27F
$$




USA.gov is the U.S. government's official web portal to all federal, state and local government web resources and services.